Tracking 19636 objects as of 24-May-2019
HD Live streaming from Space Station
objects crossing your sky now

COSMOS 2063

Track COSMOS 2063 now!
COSMOS 2063 is classified as:


NORAD ID: 20536
Int'l Code: 1990-026A
Perigee: 4,348.8 km
Apogee: 36,202.0 km
Inclination: 67.5 °
Period: 721.5 minutes
Semi major axis: 26646 km
RCS: 5.105 m2 (large)
Launch date: March 27, 1990
Source: Commonwealth of Independent States (former USSR) (CIS)
Launch site: PLESETSK MISSILE AND SPACE COMPLEX (PKMTR)
aabbcc
Your satellite tracking list
Your tracking list is empty




NASA's NSSDC Master Catalog

Two Line Element Set (TLE):
1 20536U 90026A   19142.92609664  .00000520  00000-0  00000+0 0  9998
2 20536  67.5188 332.9108 5977013 169.5799 212.7242  1.99593126212726
Source of the keplerian elements: AFSPC